Simultaneous Nadir Overpasses (SNOs) Predictions

Prediction of SNOs between GOES-15 and METOP-B Satellite Orbit:

Table of predicted SNOs for the next 14.0 days since TLE Epoch: 8/31/2018
Index Date Time (GOES-15) GOES-15 Lat,Lon METOP-B Lat,Lon Distance(km) Time Diff (sec)
1 09/01/2018 18:12:20 -0.15,-134.94 -1.04,-130.95 454.06 80
2 09/03/2018 06:28:40 0.18,-134.91 0.03,-135.55 73.11 80
3 09/05/2018 18:26:50 -0.19,-135.09 -0.16,-135.12 4.47 80
4 09/08/2018 06:27:48 0.21,-135.10 0.27,-134.73 42.04 80
5 09/09/2018 18:44:00 -0.24,-135.23 0.66,-139.31 464.18 80
6 09/10/2018 18:25:59 -0.22,-135.27 -0.46,-134.31 109.45 80
7 09/12/2018 06:42:18 0.25,-135.24 -0.54,-138.91 417.86 80
8 09/13/2018 06:24:17 0.23,-135.27 0.52,-133.90 155.10 80




NCC Satellite Simultaneous Nadir Overpasses (SNOs) Prediction Service
